Hourly Data Report for September 17, 2010

IQALUIT CLIMATE
NUNAVUT

63°44'50.000" N
68°32'40.000" W
33.50 m
2402592
71321
XFB

Download Data

Hourly Data (September 2010)
Hourly Data Report for September 17, 2010
TIME
LST
Temp Definition
°C
Dew Point Definition
°C
Rel Hum Definition
%
Precip. Amount Definition
mm

Wind Dir Definition
10's deg

Wind Spd Definition
km/h
Visibility Definition
km
Stn Press Definition
kPa
Hmdx Definition


Wind Chill Definition


Weather Definition


00:00 3.3 3.3 100   12 4   101.27     LegendNANA
01:00 3.7 3.7 100   14 4   101.29     LegendNANA
02:00 5.4 5.0 97   12 9   101.30     LegendNANA
03:00 4.9 4.6 98   12 7   101.32     LegendNANA
04:00 4.6 4.5 99   17 4   101.33     LegendNANA
05:00 4.4 4.4 100   22 4   101.34     LegendNANA
06:00 4.1 4.1 100   28 2   101.35     LegendNANA
07:00 4.8 4.8 100     0   101.35     LegendNANA
08:00 5.4 5.2 99   16 2   101.36     LegendNANA
09:00 5.3 4.9 97   15 4   101.36     LegendNANA
10:00 5.9 5.2 95   16 6   101.36     LegendNANA
11:00 5.8 4.8 93   14 7   101.33     LegendNANA
12:00 5.7 4.9 95   14 6   101.34     LegendNANA
13:00 5.9 5.0 94   14 6   101.33     LegendNANA
14:00 6.1 5.0 93   14 7   101.33     LegendNANA
15:00 5.6 4.8 95   15 9   101.34     LegendNANA
16:00 6.3 5.2 93   15 7   101.32     LegendNANA
17:00 6.2 4.8 91   14 9   101.33     LegendNANA
18:00 5.3 4.5 95   15 6   101.33     LegendNANA
19:00 5.5 4.6 94   13 6   101.32     LegendNANA
20:00 4.5 4.0 97   24 6   101.32     LegendNANA
21:00 4.1 3.9 99   33 6   101.30     LegendNANA
22:00 4.7 4.3 97   24 4   101.28     LegendNANA
23:00 3.5 3.3 99     0   101.29     LegendNANA

Notes on Data Quality.

Legend

  • E = Estimated
  • M = Missing
  • NA = Not Available*
  • [empty] = Indicates an unobserved value
Date modified: